Карточка аэропорта UNNT

Внимание!
Информация на этой странице в стадии наполнения.
Если вы не увидели какой-то информации, или заметили неточность - пожалуйста сообщите нам!
Спасибо!
Команда RU-STAFF
Название аэропортаТолмачево
Название аэропорта (англ.)Tolmachevo
Превышение367 ft. (111.9 m.)
Координаты55°0.77999999999989', 82°38.178'
Высота перехода6000ft
Эшелон переходаQNH>=1013hPa:FL70; QNH<1013hPa:FL80; QNH<977hPa:FL90
Коды ответчика5201-5227
Зона ОрВДНовосибирск РПИ (UNNT)
Данные METARUNNT 140200Z 36002MPS CAVOK 23/14 Q1012 R25/090070 R16/////// NOSIG RMK QFE749/0999
Проноз погоды (TAF)UNNT 132000Z 1321/1421 02003G08MPS 8000 SCT040CB TX29/1407Z TN14/1323Z TEMPO 1321/1402 0300 FG BKN002 BKN016CB
NOTAMshow/hide NOTAM
AWOS   TABLE

Информация о ВПП

ВПП Длина ВПП (м.) Покрытие Курс ВПП Частота ILS
073597Асфальтобетон72110.1
253597Асфальтобетон252108.5
163602Цементобетон161109.7
343602Цементобетон341111.1

Диспетчерские позиции

Позывной Наименование органа УВД Частота
UNNT_APPНовосибирск-Подход127.5
UNNT_DEL Новосибирск-Деливери135.4
UNNT_GNDНовосибирск-Руление121.7
UNNT_R_APPНовосибирск-Круг122.0
UNNT_TWRНовосибирск-Вышка118.5



Спутниковое изображение